Wetterdaten: Freitag, 17.07.2015
Datum Zeit Auen-Temp. Temp gefhlt Luftfeuchte Luftdruck Regen Wind Richtung Richtung Taupunkt Windben
17.07.2015 00:00 19,2 C 19,0 C 67 % 1013,4 hPa 0,0 mm 0,0 km/h (0 Bft) O 90 12,9 C 0,0 km/h (0 Bft)
17.07.2015 00:05 19,1 C 18,9 C 67 % 1013,4 hPa 0,0 mm 0,0 km/h (0 Bft) O-NO 67 12,8 C 0,0 km/h (0 Bft)
17.07.2015 00:10 19,1 C 18,9 C 68 % 1013,4 hPa 0,0 mm 0,0 km/h (0 Bft) O-NO 67 13,1 C 0,0 km/h (0 Bft)
17.07.2015 00:15 19,0 C 18,8 C 67 % 1013,4 hPa 0,0 mm 0,0 km/h (0 Bft) O-NO 67 12,7 C 0,0 km/h (0 Bft)
17.07.2015 00:20 19,0 C 18,8 C 68 % 1013,4 hPa 0,0 mm 0,0 km/h (0 Bft) N-NO 22 13,0 C 0,0 km/h (0 Bft)
17.07.2015 00:25 18,9 C 18,8 C 68 % 1013,4 hPa 0,0 mm 0,0 km/h (0 Bft) O 90 12,9 C 0,0 km/h (0 Bft)
17.07.2015 00:30 18,7 C 18,6 C 68 % 1013,3 hPa 0,0 mm 0,0 km/h (0 Bft) O-NO 67 12,7 C 0,0 km/h (0 Bft)
17.07.2015 00:35 18,7 C 18,6 C 68 % 1013,3 hPa 0,0 mm 0,0 km/h (0 Bft) N-NO 22 12,7 C 0,0 km/h (0 Bft)
17.07.2015 00:40 18,6 C 18,5 C 68 % 1013,3 hPa 0,0 mm 0,0 km/h (0 Bft) O-SO 112 12,6 C 0,0 km/h (0 Bft)
17.07.2015 00:45 18,6 C 18,5 C 68 % 1013,3 hPa 0,0 mm 0,0 km/h (0 Bft) O-SO 112 12,6 C 0,0 km/h (0 Bft)
17.07.2015 00:50 18,5 C 18,5 C 68 % 1013,2 hPa 0,0 mm 0,0 km/h (0 Bft) O-NO 67 12,5 C 0,0 km/h (0 Bft)
17.07.2015 00:55 18,5 C 18,5 C 69 % 1013,2 hPa 0,0 mm 0,0 km/h (0 Bft) NO 45 12,7 C 0,0 km/h (0 Bft)
17.07.2015 01:00 18,5 C 18,4 C 69 % 1013,2 hPa 0,0 mm 0,0 km/h (0 Bft) NO 45 12,7 C 0,0 km/h (0 Bft)
17.07.2015 01:05 18,5 C 18,4 C 69 % 1013,2 hPa 0,0 mm 0,0 km/h (0 Bft) O 90 12,7 C 0,0 km/h (0 Bft)
17.07.2015 01:10 18,5 C 18,4 C 69 % 1013,4 hPa 0,0 mm 0,0 km/h (0 Bft) NO 45 12,7 C 0,0 km/h (0 Bft)
17.07.2015 01:15 18,5 C 18,3 C 69 % 1013,4 hPa 0,0 mm 0,0 km/h (0 Bft) O-NO 67 12,7 C 0,0 km/h (0 Bft)
17.07.2015 01:20 18,4 C 18,3 C 69 % 1013,4 hPa 0,0 mm 0,0 km/h (0 Bft) NO 45 12,6 C 0,0 km/h (0 Bft)
17.07.2015 01:25 18,3 C 18,2 C 69 % 1013,4 hPa 0,0 mm 0,0 km/h (0 Bft) N-NO 22 12,5 C 0,0 km/h (0 Bft)
17.07.2015 01:30 18,5 C 18,3 C 69 % 1013,4 hPa 0,0 mm 0,0 km/h (0 Bft) N-NO 22 12,7 C 0,0 km/h (0 Bft)
17.07.2015 01:35 18,4 C 18,2 C 69 % 1013,4 hPa 0,0 mm 0,0 km/h (0 Bft) N-NO 22 12,6 C 0,0 km/h (0 Bft)
17.07.2015 01:40 18,2 C 18,1 C 69 % 1013,4 hPa 0,0 mm 0,0 km/h (0 Bft) NW 315 12,4 C 0,0 km/h (0 Bft)
17.07.2015 01:45 18,1 C 18,0 C 69 % 1013,4 hPa 0,0 mm 0,0 km/h (0 Bft) W-NW 292 12,3 C 0,0 km/h (0 Bft)
17.07.2015 01:50 17,9 C 17,8 C 70 % 1013,4 hPa 0,0 mm 0,0 km/h (0 Bft) N-NW 337 12,3 C 0,0 km/h (0 Bft)
17.07.2015 01:55 17,8 C 17,7 C 70 % 1013,4 hPa 0,0 mm 0,0 km/h (0 Bft) NO 45 12,3 C 0,0 km/h (0 Bft)
17.07.2015 02:00 17,8 C 17,7 C 70 % 1013,4 hPa 0,0 mm 0,0 km/h (0 Bft) NO 45 12,3 C 0,0 km/h (0 Bft)
17.07.2015 02:05 17,5 C 17,4 C 70 % 1013,4 hPa 0,0 mm 0,0 km/h (0 Bft) N-NO 22 12,0 C 0,0 km/h (0 Bft)
17.07.2015 02:10 17,3 C 17,2 C 71 % 1013,2 hPa 0,0 mm 0,0 km/h (0 Bft) N-NO 22 12,0 C 0,0 km/h (0 Bft)
17.07.2015 02:14 17,3 C 17,2 C 72 % 1013,2 hPa 0,0 mm 0,0 km/h (0 Bft) O-NO 67 12,2 C 0,0 km/h (0 Bft)
17.07.2015 02:15 17,3 C 17,2 C 72 % 1013,2 hPa 0,0 mm 0,0 km/h (0 Bft) O-NO 67 12,2 C 0,0 km/h (0 Bft)
17.07.2015 02:20 17,4 C 17,2 C 72 % 1013,2 hPa 0,0 mm 0,0 km/h (0 Bft) N-NO 22 12,3 C 0,0 km/h (0 Bft)
17.07.2015 02:25 17,3 C 17,1 C 72 % 1013,2 hPa 0,0 mm 0,0 km/h (0 Bft) O-NO 67 12,2 C 0,0 km/h (0 Bft)
17.07.2015 02:30 17,0 C 16,9 C 72 % 1013,2 hPa 0,0 mm 0,0 km/h (0 Bft) NO 45 11,9 C 0,0 km/h (0 Bft)
17.07.2015 02:35 16,9 C 16,8 C 73 % 1013,2 hPa 0,0 mm 0,0 km/h (0 Bft) O-NO 67 12,0 C 0,0 km/h (0 Bft)
17.07.2015 02:40 17,3 C 17,1 C 74 % 1013,2 hPa 0,0 mm 0,0 km/h (0 Bft) O-SO 112 12,6 C 0,0 km/h (0 Bft)
17.07.2015 02:45 17,5 C 17,3 C 74 % 1013,2 hPa 0,0 mm 0,0 km/h (0 Bft) NO 45 12,8 C 0,0 km/h (0 Bft)
17.07.2015 02:50 17,3 C 17,2 C 73 % 1013,0 hPa 0,0 mm 0,0 km/h (0 Bft) N-NO 22 12,4 C 0,0 km/h (0 Bft)
17.07.2015 02:55 17,6 C 17,4 C 74 % 1013,0 hPa 0,0 mm 0,0 km/h (0 Bft) O-NO 67 12,9 C 0,0 km/h (0 Bft)
17.07.2015 03:00 17,7 C 17,5 C 74 % 1013,0 hPa 0,0 mm 0,0 km/h (0 Bft) NO 45 13,0 C 0,0 km/h (0 Bft)
17.07.2015 03:05 17,4 C 17,3 C 73 % 1013,0 hPa 0,0 mm 0,0 km/h (0 Bft) N-NW 337 12,5 C 0,0 km/h (0 Bft)
17.07.2015 03:10 17,1 C 17,1 C 73 % 1013,1 hPa 0,0 mm 0,0 km/h (0 Bft) N-NO 22 12,2 C 0,0 km/h (0 Bft)
17.07.2015 03:15 17,0 C 17,0 C 73 % 1013,1 hPa 0,0 mm 0,0 km/h (0 Bft) N-NW 337 12,1 C 0,0 km/h (0 Bft)
17.07.2015 03:20 17,0 C 16,9 C 73 % 1013,1 hPa 0,0 mm 0,0 km/h (0 Bft) SO 135 12,1 C 0,0 km/h (0 Bft)
17.07.2015 03:25 17,1 C 17,0 C 74 % 1013,1 hPa 0,0 mm 0,0 km/h (0 Bft) W-SW 247 12,4 C 0,0 km/h (0 Bft)
17.07.2015 03:30 17,2 C 17,0 C 74 % 1013,2 hPa 0,0 mm 0,0 km/h (0 Bft) O-NO 67 12,5 C 0,0 km/h (0 Bft)
17.07.2015 03:35 17,0 C 16,9 C 74 % 1013,2 hPa 0,0 mm 0,0 km/h (0 Bft) NO 45 12,3 C 0,0 km/h (0 Bft)
17.07.2015 03:40 16,7 C 16,6 C 74 % 1013,2 hPa 0,0 mm 0,0 km/h (0 Bft) NO 45 12,0 C 0,0 km/h (0 Bft)
17.07.2015 03:45 16,6 C 16,5 C 74 % 1013,2 hPa 0,0 mm 0,0 km/h (0 Bft) N-NO 22 11,9 C 0,0 km/h (0 Bft)
17.07.2015 03:50 16,4 C 16,3 C 75 % 1013,1 hPa 0,0 mm 0,0 km/h (0 Bft) SW 225 12,0 C 0,0 km/h (0 Bft)
17.07.2015 03:55 16,4 C 16,2 C 75 % 1013,1 hPa 0,0 mm 0,0 km/h (0 Bft) N 360 12,0 C 0,0 km/h (0 Bft)
17.07.2015 04:00 16,4 C 16,2 C 75 % 1013,1 hPa 0,0 mm 0,0 km/h (0 Bft) N 360 12,0 C 0,0 km/h (0 Bft)
17.07.2015 04:05 16,4 C 16,2 C 75 % 1013,1 hPa 0,0 mm 0,0 km/h (0 Bft) NO 45 12,0 C 0,0 km/h (0 Bft)
17.07.2015 04:10 16,4 C 16,2 C 76 % 1013,2 hPa 0,0 mm 0,0 km/h (0 Bft) NO 45 12,2 C 0,0 km/h (0 Bft)
17.07.2015 04:15 16,4 C 16,2 C 76 % 1013,2 hPa 0,0 mm 0,0 km/h (0 Bft) NW 315 12,2 C 0,0 km/h (0 Bft)
17.07.2015 04:20 16,3 C 16,1 C 76 % 1013,2 hPa 0,0 mm 0,0 km/h (0 Bft) N-NO 22 12,1 C 0,0 km/h (0 Bft)
17.07.2015 04:25 16,3 C 16,1 C 76 % 1013,2 hPa 0,0 mm 0,0 km/h (0 Bft) N-NW 337 12,1 C 0,0 km/h (0 Bft)
17.07.2015 04:30 16,3 C 16,1 C 76 % 1013,1 hPa 0,0 mm 0,0 km/h (0 Bft) W-SW 247 12,1 C 0,0 km/h (0 Bft)
17.07.2015 04:35 16,4 C 16,2 C 76 % 1013,1 hPa 0,0 mm 0,0 km/h (0 Bft) N 360 12,2 C 0,0 km/h (0 Bft)
17.07.2015 04:40 16,4 C 16,2 C 76 % 1013,1 hPa 0,0 mm 0,0 km/h (0 Bft) SW 225 12,2 C 0,0 km/h (0 Bft)
17.07.2015 04:45 16,4 C 16,2 C 76 % 1013,1 hPa 0,0 mm 0,0 km/h (0 Bft) W-SW 247 12,2 C 0,0 km/h (0 Bft)
17.07.2015 04:50 16,3 C 16,1 C 76 % 1013,2 hPa 0,0 mm 0,0 km/h (0 Bft) NW 315 12,1 C 0,0 km/h (0 Bft)
17.07.2015 04:55 16,3 C 16,1 C 76 % 1013,2 hPa 0,0 mm 0,0 km/h (0 Bft) NW 315 12,1 C 0,0 km/h (0 Bft)
17.07.2015 05:00 16,1 C 16,0 C 76 % 1013,2 hPa 0,0 mm 0,0 km/h (0 Bft) N-NW 337 11,9 C 0,0 km/h (0 Bft)
17.07.2015 05:05 16,1 C 15,9 C 76 % 1013,2 hPa 0,0 mm 0,0 km/h (0 Bft) NO 45 11,9 C 0,0 km/h (0 Bft)
17.07.2015 05:10 16,1 C 15,9 C 76 % 1013,2 hPa 0,0 mm 0,0 km/h (0 Bft) NW 315 11,9 C 0,0 km/h (0 Bft)
17.07.2015 05:15 15,9 C 15,7 C 77 % 1013,2 hPa 0,0 mm 0,0 km/h (0 Bft) NW 315 11,9 C 0,0 km/h (0 Bft)
17.07.2015 05:20 15,8 C 15,6 C 77 % 1013,2 hPa 0,0 mm 0,0 km/h (0 Bft) NW 315 11,8 C 0,0 km/h (0 Bft)
17.07.2015 05:25 15,7 C 15,5 C 77 % 1013,2 hPa 0,0 mm 0,0 km/h (0 Bft) O-NO 67 11,7 C 0,0 km/h (0 Bft)
17.07.2015 05:30 15,8 C 15,6 C 77 % 1013,3 hPa 0,0 mm 0,0 km/h (0 Bft) NW 315 11,8 C 0,0 km/h (0 Bft)
17.07.2015 05:35 16,0 C 15,8 C 77 % 1013,3 hPa 0,0 mm 0,0 km/h (0 Bft) O-SO 112 12,0 C 0,0 km/h (0 Bft)
17.07.2015 05:40 16,1 C 15,9 C 77 % 1013,3 hPa 0,0 mm 0,0 km/h (0 Bft) O 90 12,1 C 3,1 km/h (1 Bft)
17.07.2015 05:45 16,2 C 16,1 C 77 % 1013,3 hPa 0,0 mm 0,0 km/h (0 Bft) NW 315 12,2 C 0,0 km/h (0 Bft)
17.07.2015 05:50 16,2 C 16,1 C 77 % 1013,2 hPa 0,0 mm 0,0 km/h (0 Bft) O-NO 67 12,2 C 0,0 km/h (0 Bft)
17.07.2015 05:55 16,2 C 16,2 C 77 % 1013,2 hPa 0,0 mm 0,0 km/h (0 Bft) N-NW 337 12,2 C 0,0 km/h (0 Bft)
17.07.2015 06:00 16,2 C 16,2 C 76 % 1013,2 hPa 0,0 mm 0,0 km/h (0 Bft) N-NO 22 12,0 C 0,0 km/h (0 Bft)
17.07.2015 06:05 16,3 C 16,4 C 76 % 1013,2 hPa 0,0 mm 0,0 km/h (0 Bft) W 270 12,1 C 0,0 km/h (0 Bft)
17.07.2015 06:10 16,4 C 17,1 C 76 % 1013,2 hPa 0,0 mm 0,0 km/h (0 Bft) O-SO 112 12,2 C 0,0 km/h (0 Bft)
17.07.2015 06:15 16,7 C 17,6 C 76 % 1013,2 hPa 0,0 mm 0,0 km/h (0 Bft) O-SO 112 12,4 C 0,0 km/h (0 Bft)
17.07.2015 06:20 17,1 C 18,4 C 76 % 1013,2 hPa 0,0 mm 0,3 km/h (0 Bft) W-SW 247 12,8 C 3,9 km/h (1 Bft)
17.07.2015 06:25 17,2 C 19,1 C 74 % 1013,2 hPa 0,0 mm 0,3 km/h (0 Bft) NW 315 12,5 C 0,0 km/h (0 Bft)
17.07.2015 06:30 17,5 C 19,9 C 73 % 1013,2 hPa 0,0 mm 0,0 km/h (0 Bft) NW 315 12,6 C 0,0 km/h (0 Bft)
17.07.2015 06:35 17,7 C 20,6 C 73 % 1013,2 hPa 0,0 mm 0,0 km/h (0 Bft) NW 315 12,8 C 0,0 km/h (0 Bft)
17.07.2015 06:40 18,0 C 21,5 C 72 % 1013,2 hPa 0,0 mm 0,0 km/h (0 Bft) NW 315 12,9 C 0,0 km/h (0 Bft)
17.07.2015 06:45 18,0 C 22,1 C 72 % 1013,2 hPa 0,0 mm 0,0 km/h (0 Bft) NW 315 12,9 C 0,0 km/h (0 Bft)
17.07.2015 06:50 18,4 C 23,0 C 72 % 1013,3 hPa 0,0 mm 0,0 km/h (0 Bft) NW 315 13,3 C 0,0 km/h (0 Bft)
17.07.2015 06:55 18,7 C 23,3 C 71 % 1013,3 hPa 0,0 mm 0,0 km/h (0 Bft) N-NW 337 13,3 C 0,0 km/h (0 Bft)
17.07.2015 07:00 19,4 C 23,6 C 70 % 1013,3 hPa 0,0 mm 0,3 km/h (0 Bft) N 360 13,8 C 0,0 km/h (0 Bft)
17.07.2015 07:05 19,7 C 24,4 C 70 % 1013,3 hPa 0,0 mm 0,3 km/h (0 Bft) NO 45 14,1 C 0,0 km/h (0 Bft)
17.07.2015 07:10 19,7 C 24,6 C 69 % 1013,4 hPa 0,0 mm 0,0 km/h (0 Bft) O-NO 67 13,8 C 0,0 km/h (0 Bft)
17.07.2015 07:15 20,2 C 25,2 C 68 % 1013,4 hPa 0,0 mm 0,0 km/h (0 Bft) NO 45 14,1 C 0,0 km/h (0 Bft)
17.07.2015 07:20 20,7 C 25,9 C 68 % 1013,4 hPa 0,0 mm 0,0 km/h (0 Bft) O-NO 67 14,6 C 0,0 km/h (0 Bft)
17.07.2015 07:25 21,1 C 26,3 C 67 % 1013,4 hPa 0,0 mm 0,0 km/h (0 Bft) NO 45 14,7 C 0,0 km/h (0 Bft)
17.07.2015 07:30 21,2 C 27,1 C 67 % 1013,3 hPa 0,0 mm 0,0 km/h (0 Bft) NO 45 14,8 C 0,0 km/h (0 Bft)
17.07.2015 07:35 21,6 C 27,9 C 67 % 1013,3 hPa 0,0 mm 0,0 km/h (0 Bft) N-NW 337 15,2 C 0,0 km/h (0 Bft)
17.07.2015 07:40 22,6 C 29,1 C 66 % 1013,3 hPa 0,0 mm 0,0 km/h (0 Bft) N-NW 337 15,9 C 0,0 km/h (0 Bft)
17.07.2015 07:45 22,6 C 29,6 C 66 % 1013,3 hPa 0,0 mm 0,0 km/h (0 Bft) N-NW 337 15,9 C 0,0 km/h (0 Bft)
17.07.2015 07:50 23,0 C 31,1 C 64 % 1013,2 hPa 0,0 mm 0,0 km/h (0 Bft) N-NW 337 15,8 C 0,0 km/h (0 Bft)
17.07.2015 07:55 23,3 C 31,9 C 63 % 1013,2 hPa 0,0 mm 0,0 km/h (0 Bft) N-NW 337 15,9 C 0,0 km/h (0 Bft)
17.07.2015 08:00 23,8 C 32,8 C 61 % 1013,2 hPa 0,0 mm 0,0 km/h (0 Bft) N-NW 337 15,8 C 0,0 km/h (0 Bft)
17.07.2015 08:05 23,7 C 33,2 C 60 % 1013,2 hPa 0,0 mm 0,0 km/h (0 Bft) N-NW 337 15,5 C 0,0 km/h (0 Bft)
17.07.2015 08:10 24,2 C 33,9 C 61 % 1013,6 hPa 0,0 mm 0,0 km/h (0 Bft) N-NW 337 16,2 C 0,0 km/h (0 Bft)
17.07.2015 08:15 24,3 C 34,4 C 61 % 1013,6 hPa 0,0 mm 0,0 km/h (0 Bft) N-NW 337 16,3 C 0,0 km/h (0 Bft)
17.07.2015 08:20 24,5 C 35,3 C 61 % 1013,6 hPa 0,0 mm 0,0 km/h (0 Bft) N-NW 337 16,5 C 0,0 km/h (0 Bft)
17.07.2015 08:25 24,6 C 35,4 C 61 % 1013,6 hPa 0,0 mm 0,0 km/h (0 Bft) N 360 16,6 C 0,0 km/h (0 Bft)
17.07.2015 08:30 25,2 C 35,1 C 60 % 1013,8 hPa 0,0 mm 0,0 km/h (0 Bft) NW 315 16,9 C 0,0 km/h (0 Bft)
17.07.2015 08:35 25,0 C 35,2 C 60 % 1013,8 hPa 0,0 mm 0,0 km/h (0 Bft) O 90 16,7 C 0,0 km/h (0 Bft)
17.07.2015 08:40 25,3 C 35,3 C 61 % 1013,8 hPa 0,0 mm 0,0 km/h (0 Bft) O 90 17,2 C 0,0 km/h (0 Bft)
17.07.2015 08:45 25,8 C 35,6 C 61 % 1013,8 hPa 0,0 mm 0,0 km/h (0 Bft) NW 315 17,7 C 0,0 km/h (0 Bft)
17.07.2015 08:50 25,9 C 35,8 C 60 % 1013,9 hPa 0,0 mm 0,0 km/h (0 Bft) O-NO 67 17,5 C 0,0 km/h (0 Bft)
17.07.2015 08:55 26,1 C 36,1 C 60 % 1013,9 hPa 0,0 mm 0,0 km/h (0 Bft) O-NO 67 17,7 C 0,0 km/h (0 Bft)
17.07.2015 09:00 26,7 C 36,6 C 59 % 1013,9 hPa 0,0 mm 0,0 km/h (0 Bft) NW 315 18,0 C 0,0 km/h (0 Bft)
17.07.2015 09:05 27,0 C 36,9 C 58 % 1013,9 hPa 0,0 mm 0,0 km/h (0 Bft) SO 135 18,0 C 0,0 km/h (0 Bft)
17.07.2015 09:10 27,0 C 37,0 C 57 % 1014,2 hPa 0,0 mm 0,0 km/h (0 Bft) O-NO 67 17,7 C 0,0 km/h (0 Bft)
17.07.2015 09:15 27,0 C 37,2 C 57 % 1014,2 hPa 0,0 mm 0,0 km/h (0 Bft) O-SO 112 17,7 C 0,0 km/h (0 Bft)
17.07.2015 09:20 26,7 C 37,4 C 57 % 1014,2 hPa 0,0 mm 0,0 km/h (0 Bft) O-SO 112 17,5 C 0,0 km/h (0 Bft)
17.07.2015 09:25 26,7 C 37,3 C 56 % 1014,2 hPa 0,0 mm 0,3 km/h (0 Bft) S 180 17,2 C 4,4 km/h (1 Bft)
17.07.2015 09:30 27,3 C 37,5 C 55 % 1014,6 hPa 0,0 mm 0,5 km/h (0 Bft) O-SO 112 17,4 C 0,0 km/h (0 Bft)
17.07.2015 09:35 27,4 C 37,5 C 55 % 1014,6 hPa 0,0 mm 0,5 km/h (0 Bft) O-NO 67 17,5 C 0,0 km/h (0 Bft)
17.07.2015 09:40 27,5 C 36,9 C 53 % 1014,6 hPa 0,0 mm 0,3 km/h (0 Bft) W-NW 292 17,0 C 4,9 km/h (1 Bft)
17.07.2015 09:45 28,1 C 37,0 C 53 % 1014,6 hPa 0,0 mm 1,0 km/h (0 Bft) NW 315 17,6 C 7,3 km/h (2 Bft)
17.07.2015 09:50 28,6 C 36,4 C 52 % 1014,6 hPa 0,0 mm 3,4 km/h (1 Bft) W 270 17,8 C 8,8 km/h (2 Bft)
17.07.2015 09:55 28,7 C 35,9 C 50 % 1014,6 hPa 0,0 mm 4,7 km/h (1 Bft) NW 315 17,2 C 0,0 km/h (0 Bft)
17.07.2015 10:00 29,1 C 35,6 C 49 % 1014,6 hPa 0,0 mm 5,4 km/h (1 Bft) NW 315 17,3 C 11,9 km/h (2 Bft)
17.07.2015 10:05 29,3 C 35,3 C 49 % 1014,6 hPa 0,0 mm 5,2 km/h (1 Bft) NW 315 17,5 C 3,6 km/h (1 Bft)
17.07.2015 10:10 29,6 C 35,5 C 49 % 1014,9 hPa 0,0 mm 4,9 km/h (1 Bft) N-NW 337 17,7 C 4,1 km/h (1 Bft)
17.07.2015 10:15 30,0 C 35,6 C 49 % 1014,9 hPa 0,0 mm 4,1 km/h (1 Bft) W-NW 292 18,1 C 5,4 km/h (1 Bft)
17.07.2015 10:20 29,9 C 35,4 C 48 % 1014,9 hPa 0,0 mm 5,2 km/h (1 Bft) NW 315 17,7 C 3,1 km/h (1 Bft)
17.07.2015 10:25 29,5 C 35,2 C 47 % 1014,9 hPa 0,0 mm 6,7 km/h (2 Bft) N-NW 337 17,0 C 3,9 km/h (1 Bft)
17.07.2015 10:30 29,6 C 35,2 C 47 % 1015,1 hPa 0,0 mm 6,2 km/h (2 Bft) W-SW 247 17,1 C 12,9 km/h (3 Bft)
17.07.2015 10:35 29,5 C 35,2 C 47 % 1015,1 hPa 0,0 mm 6,2 km/h (2 Bft) W 270 17,0 C 8,5 km/h (2 Bft)
17.07.2015 10:40 29,5 C 35,3 C 46 % 1015,1 hPa 0,0 mm 5,7 km/h (1 Bft) S 180 16,6 C 3,4 km/h (1 Bft)
17.07.2015 10:45 29,4 C 35,5 C 46 % 1015,1 hPa 0,0 mm 5,4 km/h (1 Bft) W-NW 292 16,5 C 12,2 km/h (2 Bft)
17.07.2015 10:50 29,6 C 34,9 C 46 % 1015,4 hPa 0,0 mm 7,3 km/h (2 Bft) NW 315 16,7 C 15,3 km/h (3 Bft)
17.07.2015 10:55 29,8 C 34,8 C 46 % 1015,4 hPa 0,0 mm 7,8 km/h (2 Bft) W 270 16,9 C 16,3 km/h (3 Bft)
17.07.2015 11:00 29,6 C 34,5 C 46 % 1015,4 hPa 0,0 mm 8,3 km/h (2 Bft) W-NW 292 16,7 C 18,9 km/h (3 Bft)
17.07.2015 11:05 29,3 C 34,0 C 45 % 1015,4 hPa 0,0 mm 10,1 km/h (2 Bft) W-SW 247 16,1 C 10,1 km/h (2 Bft)
17.07.2015 11:10 29,3 C 34,1 C 46 % 1015,8 hPa 0,0 mm 8,8 km/h (2 Bft) NW 315 16,5 C 19,2 km/h (3 Bft)
17.07.2015 11:15 29,3 C 34,2 C 46 % 1015,8 hPa 0,0 mm 8,3 km/h (2 Bft) NW 315 16,5 C 7,5 km/h (2 Bft)
17.07.2015 11:20 29,2 C 33,9 C 46 % 1015,8 hPa 0,0 mm 9,6 km/h (2 Bft) W 270 16,4 C 19,9 km/h (4 Bft)
17.07.2015 11:25 29,2 C 33,7 C 45 % 1015,8 hPa 0,0 mm 9,1 km/h (2 Bft) NW 315 16,0 C 14,5 km/h (3 Bft)
17.07.2015 11:30 29,3 C 33,9 C 46 % 1015,9 hPa 0,0 mm 8,5 km/h (2 Bft) W-NW 292 16,5 C 11,9 km/h (2 Bft)
17.07.2015 11:35 29,4 C 33,8 C 46 % 1015,9 hPa 0,0 mm 9,3 km/h (2 Bft) W-NW 292 16,5 C 14,5 km/h (3 Bft)
17.07.2015 11:40 29,6 C 33,9 C 46 % 1015,9 hPa 0,0 mm 9,1 km/h (2 Bft) N-NW 337 16,7 C 6,7 km/h (2 Bft)
17.07.2015 11:45 29,6 C 34,0 C 46 % 1015,9 hPa 0,0 mm 8,5 km/h (2 Bft) W-NW 292 16,7 C 8,8 km/h (2 Bft)
17.07.2015 11:50 29,6 C 33,9 C 46 % 1016,1 hPa 0,0 mm 9,6 km/h (2 Bft) S 180 16,7 C 26,9 km/h (4 Bft)
17.07.2015 11:55 29,7 C 33,6 C 46 % 1016,1 hPa 0,0 mm 10,6 km/h (2 Bft) W 270 16,8 C 12,9 km/h (3 Bft)
17.07.2015 12:00 29,8 C 33,6 C 46 % 1016,1 hPa 0,0 mm 9,1 km/h (2 Bft) W 270 16,9 C 0,0 km/h (0 Bft)
17.07.2015 12:05 30,1 C 34,0 C 46 % 1016,1 hPa 0,0 mm 8,3 km/h (2 Bft) W-SW 247 17,2 C 12,4 km/h (3 Bft)
17.07.2015 12:10 30,0 C 34,4 C 45 % 1016,1 hPa 0,0 mm 6,2 km/h (2 Bft) W-SW 247 16,7 C 5,4 km/h (1 Bft)
17.07.2015 12:15 30,3 C 34,5 C 45 % 1016,1 hPa 0,0 mm 7,0 km/h (2 Bft) W 270 17,0 C 10,1 km/h (2 Bft)
17.07.2015 12:20 30,3 C 34,5 C 44 % 1016,1 hPa 0,0 mm 7,5 km/h (2 Bft) N-NW 337 16,7 C 11,1 km/h (2 Bft)
17.07.2015 12:25 30,4 C 34,3 C 44 % 1016,1 hPa 0,0 mm 9,1 km/h (2 Bft) W 270 16,7 C 13,7 km/h (3 Bft)
17.07.2015 12:30 30,3 C 34,3 C 43 % 1016,1 hPa 0,0 mm 9,1 km/h (2 Bft) W-SW 247 16,3 C 9,3 km/h (2 Bft)
17.07.2015 12:35 30,3 C 34,5 C 43 % 1016,1 hPa 0,0 mm 7,0 km/h (2 Bft) NW 315 16,3 C 5,7 km/h (1 Bft)
17.07.2015 12:40 30,5 C 35,0 C 44 % 1016,1 hPa 0,0 mm 4,7 km/h (1 Bft) N-NO 22 16,8 C 0,0 km/h (0 Bft)
17.07.2015 12:45 30,7 C 35,4 C 43 % 1016,1 hPa 0,0 mm 4,7 km/h (1 Bft) N-NW 337 16,7 C 12,2 km/h (2 Bft)
17.07.2015 12:50 30,6 C 34,6 C 42 % 1015,8 hPa 0,0 mm 8,8 km/h (2 Bft) W 270 16,2 C 8,8 km/h (2 Bft)
17.07.2015 12:55 30,7 C 34,6 C 42 % 1015,8 hPa 0,0 mm 10,1 km/h (2 Bft) N-NW 337 16,3 C 8,5 km/h (2 Bft)
17.07.2015 13:00 31,0 C 34,5 C 42 % 1015,8 hPa 0,0 mm 8,0 km/h (2 Bft) W 270 16,6 C 6,2 km/h (2 Bft)
17.07.2015 13:05 31,0 C 34,4 C 42 % 1015,8 hPa 0,0 mm 9,3 km/h (2 Bft) SW 225 16,6 C 9,3 km/h (2 Bft)
17.07.2015 13:10 31,0 C 34,6 C 42 % 1015,5 hPa 0,0 mm 7,8 km/h (2 Bft) NW 315 16,6 C 8,0 km/h (2 Bft)
17.07.2015 13:15 31,1 C 34,7 C 41 % 1015,5 hPa 0,0 mm 8,0 km/h (2 Bft) NW 315 16,3 C 13,5 km/h (3 Bft)
17.07.2015 13:20 31,0 C 34,5 C 39 % 1015,5 hPa 0,0 mm 9,3 km/h (2 Bft) W-SW 247 15,4 C 7,3 km/h (2 Bft)
17.07.2015 13:25 31,1 C 34,5 C 39 % 1015,5 hPa 0,0 mm 7,8 km/h (2 Bft) W-SW 247 15,5 C 6,0 km/h (2 Bft)
17.07.2015 13:30 31,3 C 34,0 C 39 % 1015,4 hPa 0,0 mm 6,2 km/h (2 Bft) N 360 15,7 C 11,7 km/h (2 Bft)
17.07.2015 13:35 31,3 C 33,4 C 39 % 1015,4 hPa 0,0 mm 8,0 km/h (2 Bft) NW 315 15,7 C 9,8 km/h (2 Bft)
17.07.2015 13:40 31,5 C 33,2 C 38 % 1015,4 hPa 0,0 mm 8,3 km/h (2 Bft) W-SW 247 15,4 C 8,0 km/h (2 Bft)
17.07.2015 13:45 31,7 C 33,7 C 37 % 1015,4 hPa 0,0 mm 7,5 km/h (2 Bft) W-SW 247 15,2 C 12,9 km/h (3 Bft)
17.07.2015 13:50 31,5 C 34,4 C 36 % 1015,4 hPa 0,0 mm 6,7 km/h (2 Bft) W-SW 247 14,6 C 9,6 km/h (2 Bft)
17.07.2015 13:55 31,3 C 34,6 C 36 % 1015,4 hPa 0,0 mm 8,0 km/h (2 Bft) W-NW 292 14,4 C 17,9 km/h (3 Bft)
17.07.2015 14:00 31,5 C 34,9 C 36 % 1015,4 hPa 0,0 mm 8,8 km/h (2 Bft) W-NW 292 14,6 C 18,4 km/h (3 Bft)
17.07.2015 14:05 31,7 C 34,9 C 36 % 1015,4 hPa 0,0 mm 9,8 km/h (2 Bft) NW 315 14,8 C 12,4 km/h (3 Bft)
17.07.2015 14:10 32,0 C 35,1 C 35 % 1015,1 hPa 0,0 mm 9,8 km/h (2 Bft) N-NW 337 14,6 C 13,5 km/h (3 Bft)
17.07.2015 14:16 31,8 C 35,5 C 33 % 1015,1 hPa 0,0 mm 7,8 km/h (2 Bft) W-SW 247 13,5 C 10,4 km/h (2 Bft)
17.07.2015 14:20 31,8 C 35,5 C 33 % 1015,1 hPa 0,0 mm 7,8 km/h (2 Bft) W-SW 247 13,5 C 10,4 km/h (2 Bft)
17.07.2015 14:25 31,9 C 35,6 C 35 % 1015,1 hPa 0,0 mm 7,5 km/h (2 Bft) NW 315 14,5 C 15,5 km/h (3 Bft)
17.07.2015 14:30 32,1 C 35,7 C 35 % 1014,8 hPa 0,0 mm 7,3 km/h (2 Bft) SO 135 14,7 C 6,0 km/h (2 Bft)
17.07.2015 14:35 32,4 C 36,0 C 35 % 1014,8 hPa 0,0 mm 7,0 km/h (2 Bft) N-NO 22 14,9 C 15,3 km/h (3 Bft)
17.07.2015 14:40 32,3 C 36,5 C 33 % 1014,8 hPa 0,0 mm 4,9 km/h (1 Bft) NW 315 13,9 C 3,9 km/h (1 Bft)
17.07.2015 14:45 32,5 C 37,1 C 34 % 1014,8 hPa 0,0 mm 3,9 km/h (1 Bft) NO 45 14,6 C 8,0 km/h (2 Bft)
17.07.2015 14:50 32,5 C 37,0 C 32 % 1014,6 hPa 0,0 mm 6,5 km/h (2 Bft) NW 315 13,6 C 15,0 km/h (3 Bft)
17.07.2015 14:55 32,4 C 36,5 C 33 % 1014,6 hPa 0,0 mm 8,3 km/h (2 Bft) W 270 14,0 C 7,5 km/h (2 Bft)
17.07.2015 15:00 32,5 C 37,0 C 31 % 1014,6 hPa 0,0 mm 4,9 km/h (1 Bft) W-NW 292 13,2 C 4,1 km/h (1 Bft)
17.07.2015 15:05 32,8 C 37,4 C 31 % 1014,6 hPa 0,0 mm 3,4 km/h (1 Bft) NW 315 13,4 C 7,0 km/h (2 Bft)
17.07.2015 15:10 32,5 C 37,3 C 32 % 1014,5 hPa 0,0 mm 4,9 km/h (1 Bft) N-NO 22 13,6 C 7,0 km/h (2 Bft)
17.07.2015 15:15 32,3 C 37,1 C 31 % 1014,5 hPa 0,0 mm 6,5 km/h (2 Bft) N-NO 22 13,0 C 11,4 km/h (2 Bft)
17.07.2015 15:20 32,4 C 36,6 C 31 % 1014,5 hPa 0,0 mm 8,3 km/h (2 Bft) W-NW 292 13,1 C 13,5 km/h (3 Bft)
17.07.2015 15:25 32,3 C 36,0 C 30 % 1014,5 hPa 0,0 mm 9,8 km/h (2 Bft) NW 315 12,5 C 12,2 km/h (2 Bft)
17.07.2015 15:30 32,4 C 36,1 C 31 % 1014,4 hPa 0,0 mm 7,5 km/h (2 Bft) N 360 13,1 C 3,1 km/h (1 Bft)
17.07.2015 15:35 32,6 C 36,9 C 31 % 1014,4 hPa 0,0 mm 4,4 km/h (1 Bft) N-NW 337 13,2 C 14,0 km/h (3 Bft)
17.07.2015 15:40 32,6 C 36,8 C 29 % 1014,4 hPa 0,0 mm 3,6 km/h (1 Bft) N-NW 337 12,2 C 5,7 km/h (1 Bft)
17.07.2015 15:45 32,5 C 36,8 C 29 % 1014,4 hPa 0,0 mm 6,2 km/h (2 Bft) N-NW 337 12,1 C 16,8 km/h (3 Bft)
17.07.2015 15:50 32,1 C 36,0 C 30 % 1014,1 hPa 0,0 mm 7,3 km/h (2 Bft) W 270 12,3 C 7,8 km/h (2 Bft)
17.07.2015 15:55 32,0 C 35,2 C 31 % 1014,1 hPa 0,0 mm 6,7 km/h (2 Bft) N-NW 337 12,7 C 4,9 km/h (1 Bft)
17.07.2015 16:00 31,8 C 34,9 C 32 % 1014,1 hPa 0,0 mm 4,1 km/h (1 Bft) W-NW 292 13,0 C 6,2 km/h (2 Bft)
17.07.2015 16:05 31,6 C 34,5 C 31 % 1014,1 hPa 0,0 mm 3,1 km/h (1 Bft) W 270 12,4 C 6,2 km/h (2 Bft)
17.07.2015 16:10 31,2 C 33,9 C 33 % 1013,9 hPa 0,0 mm 3,6 km/h (1 Bft) N-NO 22 13,0 C 4,4 km/h (1 Bft)
17.07.2015 16:15 31,1 C 33,6 C 34 % 1013,9 hPa 0,0 mm 4,1 km/h (1 Bft) NW 315 13,4 C 4,9 km/h (1 Bft)
17.07.2015 16:20 30,8 C 33,3 C 34 % 1013,9 hPa 0,0 mm 3,9 km/h (1 Bft) W 270 13,1 C 3,6 km/h (1 Bft)
17.07.2015 16:25 30,8 C 33,3 C 36 % 1013,9 hPa 0,0 mm 3,6 km/h (1 Bft) NO 45 14,0 C 5,4 km/h (1 Bft)
17.07.2015 16:30 30,3 C 33,0 C 37 % 1013,8 hPa 0,0 mm 2,6 km/h (1 Bft) NW 315 14,0 C 8,3 km/h (2 Bft)
17.07.2015 16:35 30,2 C 33,0 C 38 % 1013,8 hPa 0,0 mm 3,9 km/h (1 Bft) NO 45 14,3 C 0,0 km/h (0 Bft)
17.07.2015 16:40 29,8 C 32,9 C 39 % 1013,8 hPa 0,0 mm 2,3 km/h (1 Bft) NO 45 14,3 C 2,6 km/h (1 Bft)
17.07.2015 16:45 29,5 C 32,9 C 41 % 1013,8 hPa 0,0 mm 0,8 km/h (0 Bft) NO 45 14,8 C 5,4 km/h (1 Bft)
17.07.2015 16:50 29,6 C 32,4 C 39 % 1013,9 hPa 0,0 mm 3,6 km/h (1 Bft) N 360 14,2 C 3,1 km/h (1 Bft)
17.07.2015 16:55 29,5 C 32,2 C 40 % 1013,9 hPa 0,0 mm 3,1 km/h (1 Bft) O 90 14,5 C 0,0 km/h (0 Bft)
17.07.2015 17:00 29,2 C 32,0 C 40 % 1013,9 hPa 0,0 mm 0,5 km/h (0 Bft) O 90 14,2 C 0,0 km/h (0 Bft)
17.07.2015 17:05 28,8 C 31,9 C 43 % 1013,9 hPa 0,0 mm 0,0 km/h (0 Bft) O-NO 67 15,0 C 0,0 km/h (0 Bft)
17.07.2015 17:10 28,8 C 31,4 C 43 % 1013,8 hPa 0,0 mm 1,0 km/h (0 Bft) O-NO 67 15,0 C 0,0 km/h (0 Bft)
17.07.2015 17:15 28,7 C 31,1 C 42 % 1013,8 hPa 0,0 mm 1,0 km/h (0 Bft) O 90 14,5 C 0,0 km/h (0 Bft)
17.07.2015 17:20 28,4 C 30,8 C 45 % 1013,8 hPa 0,0 mm 0,0 km/h (0 Bft) O 90 15,3 C 0,0 km/h (0 Bft)
17.07.2015 17:25 27,9 C 30,5 C 44 % 1013,8 hPa 0,0 mm 0,0 km/h (0 Bft) S-SO 157 14,5 C 0,0 km/h (0 Bft)
17.07.2015 17:30 27,3 C 30,1 C 45 % 1014,1 hPa 0,0 mm 0,0 km/h (0 Bft) O-SO 112 14,3 C 0,0 km/h (0 Bft)
17.07.2015 17:35 26,8 C 29,8 C 47 % 1014,1 hPa 0,0 mm 0,0 km/h (0 Bft) O-SO 112 14,5 C 0,0 km/h (0 Bft)
17.07.2015 17:40 26,5 C 29,3 C 46 % 1014,1 hPa 0,0 mm 0,0 km/h (0 Bft) SO 135 13,9 C 0,0 km/h (0 Bft)
17.07.2015 17:45 26,7 C 29,0 C 47 % 1014,1 hPa 0,0 mm 0,0 km/h (0 Bft) S 180 14,4 C 0,0 km/h (0 Bft)
17.07.2015 17:50 26,2 C 28,4 C 50 % 1013,8 hPa 0,0 mm 0,0 km/h (0 Bft) S 180 14,9 C 0,0 km/h (0 Bft)
17.07.2015 17:55 26,0 C 27,8 C 52 % 1013,8 hPa 0,0 mm 0,8 km/h (0 Bft) S-SO 157 15,4 C 3,4 km/h (1 Bft)
17.07.2015 18:00 25,8 C 27,2 C 56 % 1013,8 hPa 0,0 mm 2,6 km/h (1 Bft) S-SO 157 16,3 C 4,7 km/h (1 Bft)
17.07.2015 18:05 25,5 C 27,0 C 56 % 1013,8 hPa 0,0 mm 4,4 km/h (1 Bft) S-SO 157 16,1 C 5,4 km/h (1 Bft)
17.07.2015 18:10 25,4 C 26,8 C 56 % 1013,8 hPa 0,0 mm 4,9 km/h (1 Bft) S-SO 157 16,0 C 5,7 km/h (1 Bft)
17.07.2015 18:15 25,3 C 26,6 C 57 % 1013,8 hPa 0,0 mm 4,1 km/h (1 Bft) S 180 16,2 C 3,6 km/h (1 Bft)
17.07.2015 18:20 24,8 C 26,3 C 57 % 1013,8 hPa 0,0 mm 3,6 km/h (1 Bft) S-SO 157 15,7 C 6,2 km/h (2 Bft)
17.07.2015 18:25 24,7 C 26,0 C 56 % 1013,8 hPa 0,0 mm 4,1 km/h (1 Bft) S 180 15,3 C 6,7 km/h (2 Bft)
17.07.2015 18:30 24,8 C 25,8 C 55 % 1013,9 hPa 0,0 mm 4,9 km/h (1 Bft) S 180 15,1 C 6,5 km/h (2 Bft)
17.07.2015 18:35 25,0 C 25,6 C 54 % 1013,9 hPa 0,0 mm 6,2 km/h (2 Bft) S 180 15,0 C 8,3 km/h (2 Bft)
17.07.2015 18:40 24,8 C 25,5 C 53 % 1013,9 hPa 0,0 mm 6,0 km/h (2 Bft) S-SW 202 14,6 C 12,7 km/h (3 Bft)
17.07.2015 18:45 24,8 C 25,3 C 52 % 1013,9 hPa 0,0 mm 6,2 km/h (2 Bft) S 180 14,3 C 13,7 km/h (3 Bft)
17.07.2015 18:50 24,6 C 25,1 C 52 % 1014,1 hPa 0,0 mm 7,5 km/h (2 Bft) SW 225 14,1 C 4,1 km/h (1 Bft)
17.07.2015 18:55 24,4 C 24,8 C 53 % 1014,1 hPa 0,0 mm 6,7 km/h (2 Bft) SW 225 14,2 C 9,8 km/h (2 Bft)
17.07.2015 19:00 24,3 C 24,5 C 52 % 1014,1 hPa 0,0 mm 5,7 km/h (1 Bft) S 180 13,8 C 6,2 km/h (2 Bft)
17.07.2015 19:05 24,0 C 24,1 C 53 % 1014,1 hPa 0,0 mm 5,7 km/h (1 Bft) SW 225 13,8 C 10,1 km/h (2 Bft)
17.07.2015 19:10 24,2 C 24,1 C 49 % 1014,3 hPa 0,0 mm 7,5 km/h (2 Bft) W-NW 292 12,8 C 6,7 km/h (2 Bft)
17.07.2015 19:15 24,2 C 24,2 C 49 % 1014,3 hPa 0,0 mm 10,4 km/h (2 Bft) NW 315 12,8 C 15,5 km/h (3 Bft)
17.07.2015 19:20 23,7 C 23,8 C 49 % 1014,3 hPa 0,0 mm 11,4 km/h (2 Bft) O-NO 67 12,3 C 29,5 km/h (5 Bft)
17.07.2015 19:25 22,6 C 22,4 C 52 % 1014,3 hPa 0,0 mm 10,6 km/h (2 Bft) W-SW 247 12,2 C 17,3 km/h (3 Bft)
17.07.2015 19:30 22,1 C 21,8 C 54 % 1014,2 hPa 0,0 mm 8,5 km/h (2 Bft) S-SO 157 12,3 C 10,6 km/h (2 Bft)
17.07.2015 19:35 22,3 C 22,1 C 53 % 1014,2 hPa 0,0 mm 9,1 km/h (2 Bft) S 180 12,2 C 16,1 km/h (3 Bft)
17.07.2015 19:40 22,8 C 22,6 C 49 % 1014,2 hPa 0,0 mm 12,9 km/h (3 Bft) SW 225 11,5 C 21,0 km/h (4 Bft)
17.07.2015 19:45 22,5 C 22,4 C 49 % 1014,2 hPa 0,0 mm 15,8 km/h (3 Bft) W 270 11,2 C 22,5 km/h (4 Bft)
17.07.2015 19:50 21,6 C 21,5 C 53 % 1014,5 hPa 0,0 mm 14,5 km/h (3 Bft) SW 225 11,6 C 35,0 km/h (5 Bft)
17.07.2015 19:55 20,5 C 20,3 C 57 % 1014,5 hPa 0,0 mm 12,4 km/h (3 Bft) W-NW 292 11,7 C 14,8 km/h (3 Bft)
17.07.2015 20:00 19,7 C 19,2 C 59 % 1014,5 hPa 0,0 mm 9,8 km/h (2 Bft) S 180 11,5 C 0,0 km/h (0 Bft)
17.07.2015 20:05 19,0 C 18,4 C 65 % 1014,5 hPa 0,0 mm 6,5 km/h (2 Bft) NO 45 12,3 C 3,4 km/h (1 Bft)
17.07.2015 20:10 18,6 C 17,9 C 67 % 1014,8 hPa 0,0 mm 2,6 km/h (1 Bft) N-NW 337 12,3 C 5,4 km/h (1 Bft)
17.07.2015 20:15 18,7 C 17,9 C 67 % 1014,8 hPa 0,0 mm 3,4 km/h (1 Bft) W-SW 247 12,4 C 7,0 km/h (2 Bft)
17.07.2015 20:17 18,5 C 17,6 C 69 % 1014,8 hPa 0,0 mm 4,4 km/h (1 Bft) NO 45 12,7 C 6,2 km/h (2 Bft)
17.07.2015 20:20 18,5 C 17,6 C 69 % 1014,8 hPa 0,0 mm 4,4 km/h (1 Bft) NO 45 12,7 C 6,2 km/h (2 Bft)
17.07.2015 20:25 18,6 C 17,8 C 68 % 1014,8 hPa 0,0 mm 4,9 km/h (1 Bft) O-NO 67 12,6 C 8,3 km/h (2 Bft)
17.07.2015 20:30 18,8 C 18,1 C 67 % 1014,5 hPa 0,0 mm 6,5 km/h (2 Bft) N 360 12,5 C 8,0 km/h (2 Bft)
17.07.2015 20:35 18,9 C 18,3 C 66 % 1014,5 hPa 0,0 mm 7,8 km/h (2 Bft) SO 135 12,4 C 18,6 km/h (3 Bft)
17.07.2015 20:40 18,9 C 18,5 C 66 % 1014,5 hPa 0,0 mm 8,5 km/h (2 Bft) S 180 12,4 C 21,0 km/h (4 Bft)
17.07.2015 20:45 18,9 C 18,6 C 66 % 1014,5 hPa 0,0 mm 9,6 km/h (2 Bft) S-SW 202 12,4 C 7,5 km/h (2 Bft)
17.07.2015 20:50 18,9 C 18,7 C 66 % 1015,6 hPa 0,0 mm 11,1 km/h (2 Bft) W 270 12,4 C 14,5 km/h (3 Bft)
17.07.2015 20:55 18,7 C 18,6 C 66 % 1015,6 hPa 0,0 mm 9,1 km/h (2 Bft) W-SW 247 12,2 C 3,6 km/h (1 Bft)
17.07.2015 21:00 18,6 C 18,5 C 67 % 1015,6 hPa 0,0 mm 6,0 km/h (2 Bft) W 270 12,3 C 8,3 km/h (2 Bft)
17.07.2015 21:05 18,7 C 18,6 C 66 % 1015,6 hPa 0,0 mm 4,7 km/h (1 Bft) NW 315 12,2 C 7,3 km/h (2 Bft)
17.07.2015 21:10 19,1 C 19,0 C 63 % 1015,7 hPa 0,0 mm 7,0 km/h (2 Bft) W 270 11,9 C 5,4 km/h (1 Bft)
17.07.2015 21:15 19,4 C 19,3 C 62 % 1015,7 hPa 0,0 mm 8,3 km/h (2 Bft) W 270 11,9 C 10,4 km/h (2 Bft)
17.07.2015 21:20 19,5 C 19,4 C 60 % 1015,7 hPa 0,0 mm 7,8 km/h (2 Bft) S-SW 202 11,5 C 9,1 km/h (2 Bft)
17.07.2015 21:25 19,1 C 19,4 C 62 % 1015,7 hPa 0,0 mm 6,7 km/h (2 Bft) O 90 11,6 C 4,1 km/h (1 Bft)
17.07.2015 21:30 19,2 C 19,4 C 61 % 1016,6 hPa 0,0 mm 2,6 km/h (1 Bft) SW 225 11,5 C 3,4 km/h (1 Bft)
17.07.2015 21:35 19,3 C 19,2 C 61 % 1016,6 hPa 0,0 mm 2,1 km/h (1 Bft) W-NW 292 11,6 C 0,0 km/h (0 Bft)
17.07.2015 21:40 18,0 C 17,7 C 71 % 1016,6 hPa 0,0 mm 3,4 km/h (1 Bft) SO 135 12,7 C 7,8 km/h (2 Bft)
17.07.2015 21:45 17,7 C 17,3 C 71 % 1016,6 hPa 0,0 mm 4,1 km/h (1 Bft) S 180 12,4 C 3,1 km/h (1 Bft)
17.07.2015 21:50 17,5 C 17,1 C 73 % 1016,4 hPa 0,7 mm 4,9 km/h (1 Bft) S-SW 202 12,6 C 13,7 km/h (3 Bft)
17.07.2015 21:55 17,6 C 17,2 C 75 % 1016,4 hPa 0,0 mm 6,0 km/h (2 Bft) SO 135 13,1 C 9,8 km/h (2 Bft)
17.07.2015 22:00 17,2 C 17,0 C 78 % 1016,4 hPa 0,0 mm 6,2 km/h (2 Bft) O-SO 112 13,3 C 0,0 km/h (0 Bft)
17.07.2015 22:05 17,1 C 16,8 C 76 % 1016,4 hPa 0,0 mm 3,1 km/h (1 Bft) SO 135 12,8 C 0,0 km/h (0 Bft)
17.07.2015 22:10 16,7 C 16,4 C 74 % 1016,1 hPa 0,0 mm 0,0 km/h (0 Bft) S 180 12,0 C 0,0 km/h (0 Bft)
17.07.2015 22:15 16,7 C 16,3 C 74 % 1016,1 hPa 0,0 mm 0,0 km/h (0 Bft) O-NO 67 12,0 C 0,0 km/h (0 Bft)
17.07.2015 22:20 16,7 C 16,2 C 74 % 1016,1 hPa 0,0 mm 0,0 km/h (0 Bft) O 90 12,0 C 0,0 km/h (0 Bft)
17.07.2015 22:25 16,5 C 16,1 C 74 % 1016,1 hPa 0,0 mm 0,0 km/h (0 Bft) O-NO 67 11,8 C 0,0 km/h (0 Bft)
17.07.2015 22:30 16,3 C 15,9 C 73 % 1015,2 hPa 0,0 mm 0,0 km/h (0 Bft) W 270 11,4 C 3,9 km/h (1 Bft)
17.07.2015 22:35 16,6 C 16,2 C 73 % 1015,2 hPa 0,0 mm 0,3 km/h (0 Bft) O-NO 67 11,7 C 0,0 km/h (0 Bft)
17.07.2015 22:40 16,7 C 16,6 C 71 % 1015,2 hPa 0,0 mm 1,8 km/h (1 Bft) N 360 11,4 C 8,5 km/h (2 Bft)
17.07.2015 22:45 17,0 C 16,8 C 71 % 1015,2 hPa 0,0 mm 3,4 km/h (1 Bft) W 270 11,7 C 6,7 km/h (2 Bft)
17.07.2015 22:50 17,2 C 17,1 C 70 % 1014,5 hPa 0,0 mm 3,6 km/h (1 Bft) W-NW 292 11,7 C 2,6 km/h (1 Bft)
17.07.2015 22:55 17,4 C 17,3 C 70 % 1014,5 hPa 0,0 mm 3,1 km/h (1 Bft) NW 315 11,9 C 6,5 km/h (2 Bft)
17.07.2015 23:00 17,1 C 17,3 C 69 % 1014,5 hPa 0,0 mm 2,6 km/h (1 Bft) N-NW 337 11,4 C 8,3 km/h (2 Bft)
17.07.2015 23:05 17,6 C 17,5 C 68 % 1014,5 hPa 0,0 mm 2,8 km/h (1 Bft) W-NW 292 11,6 C 4,7 km/h (1 Bft)
17.07.2015 23:10 17,8 C 17,8 C 66 % 1013,8 hPa 0,0 mm 3,9 km/h (1 Bft) N-NO 22 11,4 C 4,4 km/h (1 Bft)
17.07.2015 23:15 18,0 C 18,0 C 65 % 1013,8 hPa 0,0 mm 4,7 km/h (1 Bft) NW 315 11,3 C 5,7 km/h (1 Bft)
17.07.2015 23:20 18,2 C 18,3 C 64 % 1013,8 hPa 0,0 mm 5,4 km/h (1 Bft) NW 315 11,3 C 9,3 km/h (2 Bft)
17.07.2015 23:25 18,3 C 18,5 C 63 % 1013,8 hPa 0,0 mm 6,0 km/h (2 Bft) W 270 11,1 C 10,9 km/h (2 Bft)
17.07.2015 23:30 18,3 C 18,6 C 63 % 1013,5 hPa 0,0 mm 4,7 km/h (1 Bft) N-NO 22 11,1 C 0,0 km/h (0 Bft)
17.07.2015 23:35 18,1 C 18,4 C 63 % 1013,5 hPa 0,0 mm 3,1 km/h (1 Bft) O 90 10,9 C 4,1 km/h (1 Bft)
17.07.2015 23:40 18,3 C 18,4 C 63 % 1013,5 hPa 0,0 mm 1,8 km/h (1 Bft) S 180 11,1 C 3,6 km/h (1 Bft)
17.07.2015 23:45 18,4 C 18,4 C 62 % 1013,5 hPa 0,0 mm 1,8 km/h (1 Bft) W 270 11,0 C 0,0 km/h (0 Bft)
17.07.2015 23:50 18,4 C 18,4 C 62 % 1013,7 hPa 0,0 mm 1,3 km/h (1 Bft) W 270 11,0 C 0,0 km/h (0 Bft)
17.07.2015 23:55 18,2 C 18,4 C 62 % 1013,7 hPa 0,0 mm 0,8 km/h (0 Bft) S 180 10,8 C 3,6 km/h (1 Bft)
_ Min-Zeit 05:25 05:25 15:45 03:05 - 22:30 - - 23:55 23:50
Minimum _ 15,7 C 15,5 C 29 % 1013,0 hPa - 0,0 km/h (0 Bft) - - 10,8 C 0,0 km/h (0 Bft)
_ Max-Zeit 15:05 09:35 22:00 21:45 21:50 19:45 - - 10:15 19:50
Maximum _ 32,8 C 37,5 C 78 % 1016,6 hPa 0,7 mm 15,8 km/h
W (3 Bft)
- - 18,1 C 35,0 km/h
SW (5 Bft)
Durchschnitt _ 23,3 C 25,7 C 58 % 1014,2 hPa #0,7 mm 3,4 km/h (1 Bft) NW - 13,9 C 4,8 km/h (1 Bft)